Weather History for Oklahoma City, OK

Change the Weather History Date:

Sunday, December 30, 2012

  Actual Average Record
Temperature  
Mean Temperature 31 °F 39 °F  
Max Temperature 40 °F 49 °F 74 °F (1951)
Min Temperature 21 °F 29 °F 3 °F (1983)
Degree Days  
Heating Degree Days 34 26  
Month to date heating degree days 660 731  
Since 1 July heating degree days 1202 1330  
Moisture  
Dew Point 22 °F    
Average Humidity 65    
Maximum Humidity 81    
Minimum Humidity 48    
Precipitation  
Precipitation 0.00 in 0.04 in 0.40 in (1899)
Month to date precipitation 0.32 1.83  
Year to date precipitation 29.12 36.47  
Snow  
Snow 0.00 in 0.10 in 3.20 in (1958)
Month to date snowfall 1.4 2.0  
Since 1 July snowfall 1.4 2.4  
Snow Depth -    
Sea Level Pressure  
Sea Level Pressure 30.29 in    
Wind  
Wind Speed 12 mph (SSE)    
Max Wind Speed 22 mph    
Max Gust Speed 28 mph    
Visibility 10 miles    
Events      
T = Trace of Precipitation, MM = Missing Value Source: NWS Daily Summary

Daily Weather History Graph

Daily Weather History Graph

Search for Another Location

Airport:

Trip Planner

Search our weather history database for the weather conditions in past years. The results will help you decide how hot, cold, wet, or windy it might be!

Date:

Astronomy

Dec. 30, 2012 Rise Set
Actual Time 7:39 AM CST 5:27 PM CST
Civil Twilight 7:10 AM CST 5:55 PM CST
Nautical Twilight 6:39 AM CST 6:27 PM CST
Astronomical Twilight 6:08 AM CST 6:58 PM CST
Moon 7:54 PM CST (12/30) 8:53 AM CST (12/30)
Length of Visible Light 10h 44m
Length of Day
9h 48m
Waning Gibbous, 95% of the Moon is Illuminated
Dec 30
Waning Gibbous
Jan 4
Last Quarter
Jan 11
New
Jan 18
First Quarter
Jan 26
Full

Hourly Weather History & Observations

Time (CST) Temp. Windchill Dew Point Humidity Pressure Visibility Wind Dir Wind Speed Gust Speed Precip Events Conditions
12:52 AM 26.1 °F 17.6 °F 19.9 °F 78% 30.39 in 10.0 mi SSE 8.1 mph - N/A   Clear
1:52 AM 26.1 °F 17.6 °F 19.9 °F 78% 30.38 in 10.0 mi SSE 8.1 mph - N/A   Partly Cloudy
2:52 AM 25.0 °F 16.3 °F 19.0 °F 78% 30.39 in 10.0 mi SSE 8.1 mph - N/A   Partly Cloudy
3:52 AM 25.0 °F 17.1 °F 19.0 °F 78% 30.37 in 10.0 mi SSE 6.9 mph - N/A   Scattered Clouds
4:52 AM 24.1 °F 17.0 °F 19.0 °F 81% 30.35 in 10.0 mi SSE 5.8 mph - N/A   Scattered Clouds
5:52 AM 25.0 °F 15.5 °F 19.9 °F 81% 30.36 in 10.0 mi SSE 9.2 mph - N/A   Mostly Cloudy
6:52 AM 24.8 °F 16.1 °F 19.4 °F 80% 30.33 in 10.0 mi SE 8.1 mph - N/A   Overcast
7:52 AM 25.0 °F 18.1 °F 19.9 °F 81% 30.38 in 10.0 mi SE 5.8 mph - N/A   Mostly Cloudy
8:52 AM 30.0 °F 23.2 °F 24.1 °F 79% 30.38 in 10.0 mi SSE 6.9 mph - N/A   Overcast
9:52 AM 32.0 °F 23.6 °F 25.0 °F 75% 30.38 in 10.0 mi South 10.4 mph - N/A   Overcast
10:52 AM 35.1 °F 25.2 °F 25.0 °F 67% 30.38 in 10.0 mi South 16.1 mph - N/A   Overcast
11:52 AM 37.9 °F 28.9 °F 24.1 °F 57% 30.35 in 10.0 mi South 16.1 mph - N/A   Overcast
12:52 PM 39.0 °F 30.3 °F 23.0 °F 53% 30.30 in 10.0 mi South 16.1 mph - N/A   Overcast
1:52 PM 39.9 °F 32.1 °F 21.9 °F 49% 30.26 in 10.0 mi South 13.8 mph - N/A   Overcast
2:52 PM 39.0 °F 29.9 °F 21.0 °F 49% 30.25 in 10.0 mi South 17.3 mph - N/A   Overcast
3:52 PM 39.0 °F 31.4 °F 21.0 °F 49% 30.24 in 10.0 mi SSE 12.7 mph - N/A   Overcast
4:52 PM 37.9 °F 30.0 °F 21.9 °F 53% 30.23 in 10.0 mi SSE 12.7 mph - N/A   Overcast
5:52 PM 37.0 °F 28.5 °F 23.0 °F 57% 30.21 in 10.0 mi SSE 13.8 mph - N/A   Overcast
6:52 PM 37.9 °F 29.6 °F 23.0 °F 55% 30.21 in 10.0 mi SSE 13.8 mph - N/A   Overcast
7:52 PM 37.9 °F 30.0 °F 23.0 °F 55% 30.22 in 10.0 mi SSE 12.7 mph - N/A   Overcast
8:52 PM 37.9 °F 30.9 °F 23.0 °F 55% 30.19 in 10.0 mi SSE 10.4 mph - N/A   Overcast
9:52 PM 37.9 °F 30.5 °F 23.0 °F 55% 30.17 in 10.0 mi SSE 11.5 mph - N/A   Overcast
10:52 PM 37.9 °F 29.2 °F 25.0 °F 60% 30.17 in 10.0 mi South 15.0 mph 24.2 mph N/A   Overcast
11:52 PM 37.0 °F 26.7 °F 27.0 °F 67% 30.17 in 10.0 mi South 19.6 mph - N/A   Overcast